Miscellaneous Local Product
Issued by NWS North Platte, NE

Home | Current Version | Previous Version | Text Only | Print | Product List | Glossary On
Versions: 1 2 3 4 5 6 7 8 9 10 11 12 13 14 15 16 17 18 19 20 21 22 23 24 25 26 27 28 29 30 31 32 33 34 35 36 37 38 39 40 41 42 43 44 45 46 47 48 49 50
706
AXUS43 KLBF 230010
MISLBF


WESTERN AND NORTH CENTRAL NEBRASKA HOURLY WEATHER ROUNDUP
NATIONAL WEATHER SERVICE NORTH PLATTE NE
700 PM CDT SUN OCT 22 2017

NOTE: "FAIR" INDICATES FEW OR NO CLOUDS BELOW 12,000 FEET WITH NO
SIGNIFICANT WEATHER AND/OR OBSTRUCTIONS TO VISIBILITY.

NOTE: STATIONS NOT REPORTING VARIABLES SUCH AS SKY/WEATHER OR
PRESSURE ARE PROVIDED BY RAWS AND APRS NETWORKS AND ARE NOT UNDER
NATIONAL WEATHER SERVICE QUALITY CONTROL.

...OBSERVATIONS IN AND NEAR THE EASTERN PANHANDLE OF NEBRASKA...

CITY           SKY/WX    TMP DP  RH WIND       PRES   REMARKS
PINE RIDGE     CLOUDY    66  30  26 W10       29.90R
GORDON         FAIR      63  31  30 W10       29.91S
CHADRON        CLOUDY    67  26  21 NW12      29.90S
ALLIANCE       CLOUDY    56  29  35 SW8       29.96F
SIDNEY         CLOUDY    59  28  30 NW8       30.03S
$$

...OBSERVATIONS IN NORTHERN NEBRASKA AND FAR SOUTHERN SOUTH DAKOTA...

CITY           SKY/WX    TMP DP  RH WIND       PRES   REMARKS
WINNER         FAIR      58  35  42 S9        29.86S
VALENTINE      CLEAR     59  32  36 S3        29.89S
THEDFORD       CLOUDY    61  33  35 SW7       29.94R
AINSWORTH      CLEAR     55  36  48 S3        29.90F
O`NEILL        CLOUDY    58  36  44 S7        29.92R
ORD            PTCLDY    57  32  38 S7        29.92F
BROKEN BOW     CLOUDY    56  36  47 CALM      29.94S
VALENTINE NWR    N/A     65  29  26 W5G16       N/A
HALSEY           N/A     63  35  35 CALM        N/A
BUTTE            N/A     63  34  34 SW5         N/A
CHAMBERS         N/A     55  31  40 CALM        N/A
EWING            N/A     59  35  40 S3          N/A
$$

...OBSERVATIONS IN SOUTHWEST NEBRASKA AND FAR NORTHEAST COLORADO...

CITY           SKY/WX    TMP DP  RH WIND       PRES   REMARKS
HOLYOKE        FAIR      61  28  29 SW5       30.03R
IMPERIAL       CLOUDY    62  27  26 W7        30.00S
OGALLALA       CLOUDY    61  35  37 NW9       29.99R
NORTH PLATTE   CLOUDY    61  35  37 SW6       29.96R
MCCOOK         PTCLDY    63  26  24 SW8       29.98F
LEXINGTON      CLOUDY    62  29  28 SW7       29.97S
STAPLETON        N/A     60  34  37 CALM        N/A
GOTHENBURG       N/A     69  28  21 SW6         N/A
CALLAWAY         N/A     66  32  27 SW6         N/A
$$

...OBSERVATIONS IN CENTRAL LINCOLN COUNTY AREA...

CITY           SKY/WX    TMP DP  RH WIND       PRES   REMARKS
N.P. AIRPORT   CLOUDY    61  35  37 SW6       29.96R
N.P. DOWNTOWN    N/A     61  37  40 CALM        N/A
N.P. SOUTHEAST   N/A     63  35  35 CALM        N/A
N.P. HILLCREST   N/A     64  34  33 SW3         N/A
$$

...SOME OBSERVATIONS FROM AROUND THE REGION...

CITY           SKY/WX    TMP DP  RH WIND       PRES   REMARKS
DENVER         CLOUDY    64  20  18 NW14      30.11R
LIMON          CLOUDY    56  28  34 N3        30.12R
ASPEN          CLOUDY    50  26  39 NE3       30.41S
LARAMIE        CLOUDY    49  23  36 S15       30.19F
CASPER         PTCLDY    58  27  30 SW21G28   30.04S
CHEYENNE       CLOUDY    58  24  27 W16G31    30.12S
SCOTTSBLUFF    CLOUDY    64  29  26 W25G36    29.97F
GRAND ISLAND   CLOUDY    59  32  36 S8        29.98F
OMAHA          PTCLDY    59  33  37 S8        30.00F
SIOUX FALLS    PTCLDY    56  33  42 S9        29.89S
PIERRE         PTCLDY    61  33  35 SW9       29.78S
RAPID CITY     CLOUDY    58  29  33 W8        29.84S
BISMARCK       CLOUDY    62  40  44 SW12      29.65F
KANSAS CITY    PTCLDY    56  39  53 SE6       30.09S
HILL CITY      CLEAR     64  25  22 S3        30.04F
WICHITA        PTCLDY    60  41  49 SE7       30.09S
DODGE CITY     CLEAR     60  23  24 S7        30.08S
OKLAHOMA CITY  PTCLDY    62  35  36 CALM      30.14S
DALLAS         PTCLDY    66  37  34 N9        30.12R
AMARILLO       CLEAR     59  31  34 SW8       30.17F
$$




USA.gov is the U.S. government's official web portal to all federal, state and local government web resources and services.